Snowfall_Accumulation
0.0 0.0 0.0 0.0 0.0 0.0 0.0 0.0 0.0 0.0 0.0 0.0 0.0 0.0 0.0 0.0 0.0 0.0 0.0 0.0 0.0 0.0 0.0 0.0 0.0 0.0 0.0 0.0 0.0 0.0 0.0 0.0 0.0 0.0 0.0 0.0 0.0 0.0 0.0 0.0 0.0 0.0 0.0 0.0
0.0 0.0 0.0 0.0 0.0 0.0 0.0 0.0 0.0 0.0 0.0 0.0 0.0 0.0 0.0 0.0 0.0 0.0 0.0 0.0 0.0 0.0 0.0 0.0 0.0 0.0 0.0 0.0 0.0 0.0 0.0 0.0 0.0 0.0 0.0 0.0 0.0 0.0 0.0 0.0 0.0 0.0 0.0 0.0
0.0 0.0 0.0 0.0 0.0 0.0 0.0 0.0 0.0 0.0 0.0 0.0 0.0 0.0 0.0 0.0 0.0 0.0 0.0 0.0 0.0 0.0 0.0 0.0 0.0 0.0 0.0 0.0 0.0 0.0 0.0 0.0 0.0 0.0 0.0 0.0 0.0 0.0 0.0 0.0 0.0 0.0 0.0 0.0
0.0 0.0 0.0 0.0 0.0 0.0 0.0 0.0 0.0 0.0 0.0 0.0 0.0 0.0 0.0 0.0 0.0 0.0 0.0 0.0 0.0 0.0 0.0 0.0 0.0 0.0 0.0 0.0 0.0 0.0 0.0 0.0 0.0 0.0 0.0 0.0 0.0 0.0 0.0 0.0 0.0 0.0 0.0 0.0
0.1 0.0 0.0 0.0 0.0 0.0 0.0 0.0 0.0 0.0 0.0 0.1 0.0 0.0 0.0 0.0 0.0 0.0 0.0 0.0 0.0 0.0 0.0 0.0 0.0 0.0 0.0 0.0 0.0 0.0 0.0 0.0 0.0 0.0 0.0 0.0 0.0 0.0 0.0 0.0 0.0 0.0 0.0 0.0
0.0 0.0 0.0 0.0 0.0 0.0 0.0 0.0 0.0 0.0 0.0 1.2 0.0 0.0 0.0 0.0 0.0 0.0 0.0 0.0 0.0 0.0 0.0 0.0 0.0 0.0 0.0 0.0 0.0 0.0 0.0 0.0 0.0 0.0 0.0 0.0 0.0 0.0 0.0 0.0 0.0 0.0 0.0 0.0
0.0 0.0 0.0 0.0 0.0 0.0 0.0 0.0 4.1 5.7 8.2 1.2 0.0 0.0 0.0 0.0 0.0 0.0 0.0 0.0 0.0 0.0 0.0 0.0 0.0 0.0 0.0 0.0 0.0 0.0 0.0 0.0 0.0 0.0 0.0 0.0 0.0 0.0 0.0 0.0 0.0 0.0 0.0 0.0
1.0 4.1 0.0 0.0 0.0 0.0 0.0 0.0 1.1 0.9 0.9 0.1 0.0 0.1 0.0 0.0 0.0 0.0 0.0 0.0 0.0 0.0 0.0 0.0 0.0 0.0 0.0 0.0 0.0 0.0 0.0 0.0 0.0 0.0 0.0 0.0 0.0 0.0 0.0 0.0 0.0 0.0 0.0 0.0
0.7 0.2 0.0 0.0 0.0 0.0 0.0 0.4 0.0 0.3 1.5 0.9 0.4 0.0 0.0 0.0 0.0 0.0 0.0 0.0 0.0 0.0 0.0 0.0 0.0 0.0 0.0 0.0 0.0 0.0 0.0 0.0 0.0 0.0 0.0 0.0 0.0 0.0 0.0 0.0 0.0 0.0 0.0 0.0
0.0 0.6 0.0 0.0 0.0 0.0 0.0 0.0 2.3 2.0 6.9 3.0 0.1 0.0 0.0 0.0 0.0 0.0 0.0 0.0 0.0 0.0 0.0 0.0 0.0 0.0 0.0 0.0 0.0 0.0 0.0 0.0 0.0 0.0 0.0 0.0 0.0 0.0 0.0 0.0 0.0 0.0 0.0 0.0
0.0 0.1 0.2 0.0 0.0 0.0 0.0 0.0 0.0 0.5 1.9 1.7 1.1 0.1 0.0 0.0 0.0 0.0 0.0 0.0 0.0 0.0 0.0 0.0 0.0 0.0 0.0 0.0 0.0 0.0 0.0 0.0 0.0 0.0 0.0 0.0 0.0 0.0 0.0 0.0 0.0 0.0 0.0 0.0
0.0 0.0 1.3 0.2 0.0 0.0 0.0 0.0 0.0 1.1 0.5 0.8 1.4 1.0 0.0 0.0 0.0 0.0 0.0 0.0 0.0 0.0 0.0 0.0 0.0 0.0 0.0 0.0 0.0 0.0 0.0 0.0 0.0 0.0 0.0 0.0 0.0 0.0 0.0 0.0 0.0 0.0 0.0 0.0
0.0 1.7 6.7 4.6 2.7 0.0 0.0 0.0 0.0 0.0 0.1 0.2 2.5 0.2 0.0 0.0 0.0 0.0 0.0 0.0 0.0 0.0 0.0 0.0 0.0 0.0 0.0 0.0 0.0 0.0 0.0 0.0 0.0 0.0 0.0 0.0 0.0 0.0 0.0 0.0 0.0 0.0 0.0 0.0
nan 0.1 0.2 0.3 0.2 0.0 0.0 0.0 0.0 0.0 4.5 0.2 0.1 0.0 0.0 0.0 0.0 0.0 0.0 0.0 0.0 0.0 0.0 0.0 0.0 0.0 0.0 0.0 0.0 0.0 0.0 0.0 0.0 0.0 0.0 0.0 0.0 0.0 0.0 0.0 0.0 0.0 0.0 0.0
0.0 3.2 0.0 0.0 0.0 0.0 0.0 0.0 0.0 0.1 0.0 0.5 0.0 0.0 0.0 0.0 0.0 0.0 0.0 0.0 0.0 0.0 0.0 0.0 0.0 0.0 0.0 0.0 0.0 0.0 0.0 0.0 0.0 0.0 0.0 0.0 0.0 0.0 0.0 0.0 0.0 0.0 0.0 0.0
0.0 3.0 0.2 2.7 0.0 0.0 0.1 0.0 0.0 0.0 0.0 0.0 0.0 0.0 0.0 0.0 0.0 0.0 0.0 0.0 0.0 0.0 0.0 0.0 0.0 0.0 0.0 0.0 0.0 0.0 0.0 0.0 0.0 0.0 0.0 0.0 0.0 0.0 0.0 0.0 0.0 0.0 0.0 0.0
0.0 1.5 9.0 16.5 0.2 0.3 13.6 0.3 0.0 0.0 0.0 0.0 0.0 0.0 0.0 0.0 0.0 0.0 0.0 0.0 0.0 0.0 0.0 0.0 0.0 0.0 0.0 0.0 0.0 0.0 0.0 0.0 0.0 0.0 0.0 0.0 0.0 0.1 0.0 0.0 0.0 0.0 0.0 0.1
0.1 0.6 2.3 16.6 7.5 45.3 1.8 0.0 0.0 0.0 0.0 0.0 0.0 0.0 0.0 0.0 0.0 0.0 0.0 0.0 0.0 0.0 0.0 0.0 0.0 0.0 0.0 0.0 0.0 0.0 0.0 0.0 0.0 0.1 0.1 0.1 0.2 0.4 0.5 0.5 0.4 0.3 0.2 0.2
0.0 0.1 15.0 30.1 17.2 0.4 0.0 0.0 0.0 0.0 0.0 0.0 0.0 0.0 0.0 0.0 0.0 0.0 0.0 0.0 0.0 0.0 0.0 0.0 0.0 0.0 0.0 0.2 0.3 0.4 0.6 0.5 0.4 0.4 0.6 0.6 0.5 0.6 0.5 0.6 0.5 0.5 0.5 0.3
0.0 0.0 0.7 25.4 25.6 23.0 0.0 0.0 0.0 0.0 0.4 0.0 0.0 0.0 0.0 0.0 0.0 0.0 0.0 0.0 0.0 0.0 0.0 0.1 0.3 0.4 0.4 0.4 0.3 0.4 0.5 0.6 0.7 0.6 0.7 0.6 0.5 0.9 0.8 0.8 1.0 1.0 0.8 0.9
7.3 11.1 24.6 20.7 20.0 5.8 0.0 0.0 0.0 3.3 0.1 0.1 0.0 0.0 0.0 0.0 0.0 0.0 0.0 0.0 0.0 0.1 0.4 0.6 1.1 1.3 1.6 1.7 1.8 2.1 1.9 2.1 1.8 1.8 1.5 1.5 1.3 1.6 1.0 1.1 1.0 1.5 1.7 1.2
4.1 11.3 22.5 15.7 21.8 27.5 0.0 0.0 0.0 0.0 0.0 0.0 0.0 0.0 0.0 0.0 0.0 0.0 0.0 0.0 0.1 0.3 0.5 0.5 0.5 0.6 0.8 1.0 0.9 1.0 1.1 1.3 1.8 2.0 2.3 2.5 2.5 2.0 1.7 2.8 2.3 3.1 2.7 3.1
6.1 0.8 4.1 0.6 2.7 0.0 0.0 0.0 0.0 0.0 0.0 0.0 0.0 0.0 0.0 0.0 0.0 0.0 0.0 0.0 0.1 0.2 0.6 0.7 1.0 1.5 1.5 2.2 1.9 2.7 3.0 3.0 3.4 4.3 5.4 5.0 4.1 3.3 2.9 3.8 3.4 4.9 3.5 4.9
0.6 0.7 3.2 3.4 1.1 0.1 0.0 0.0 0.0 0.0 0.0 0.0 0.0 0.0 0.0 0.0 0.0 0.0 0.0 0.0 0.2 0.8 1.3 1.4 2.0 2.8 3.3 2.9 3.1 3.0 2.9 3.2 6.9 6.7 4.4 3.6 4.1 3.3 3.7 3.9 4.1 5.8 5.6 5.0
1.8 2.1 3.9 2.9 1.1 1.1 0.4 0.1 0.0 0.0 0.0 0.0 0.0 0.0 0.0 0.0 0.0 0.0 0.1 0.4 0.5 1.2 2.3 3.4 5.1 5.5 5.6 4.8 4.7 5.3 4.4 4.2 5.2 5.9 4.3 4.6 5.1 5.3 4.4 3.7 4.8 5.3 3.3 6.1
2.7 3.4 3.3 2.9 1.7 1.1 0.2 1.1 0.4 0.4 0.2 0.1 0.1 0.4 0.6 0.6 0.7 1.1 1.4 1.0 1.3 2.2 2.7 3.5 3.9 4.0 4.7 5.4 5.9 6.9 6.9 5.5 5.8 4.5 5.9 4.8 4.9 4.6 4.5 5.5 6.0 nan nan nan
Water_Equivalent
0.00 0.00 0.00 0.00 0.00 0.00 0.00 0.00 0.00 0.00 0.00 0.00 0.00 0.00 0.00 0.00 0.00 0.00 0.00 0.00 0.00 0.00 0.00 0.00 0.00 0.00 0.00 0.00 0.00 0.00 0.00 0.00 0.00 0.00 0.00 0.00 0.00 0.00 0.00 0.00 0.00 0.00 0.00 0.00
0.00 0.00 0.00 0.00 0.00 0.00 0.00 0.00 0.00 0.00 0.00 0.00 0.00 0.00 0.00 0.00 0.00 0.00 0.00 0.00 0.00 0.00 0.00 0.00 0.00 0.00 0.00 0.00 0.00 0.00 0.00 0.00 0.00 0.00 0.00 0.00 0.00 0.00 0.00 0.00 0.00 0.00 0.00 0.00
0.00 0.00 0.00 0.00 0.00 0.00 0.00 0.00 0.00 0.00 0.00 0.00 0.00 0.00 0.00 0.00 0.00 0.00 0.00 0.00 0.00 0.00 0.00 0.00 0.00 0.00 0.00 0.00 0.00 0.00 0.00 0.00 0.00 0.00 0.00 0.00 0.00 0.00 0.00 0.00 0.00 0.00 0.00 0.00
0.00 0.00 0.00 0.00 0.00 0.00 0.00 0.00 0.00 0.00 0.00 0.00 0.00 0.00 0.00 0.00 0.00 0.00 0.00 0.00 0.00 0.00 0.00 0.00 0.00 0.00 0.00 0.00 0.00 0.00 0.00 0.00 0.00 0.00 0.00 0.00 0.00 0.00 0.00 0.00 0.00 0.00 0.00 0.00
0.03 0.00 0.00 0.00 0.00 0.00 0.00 0.00 0.00 0.00 0.00 0.01 0.00 0.00 0.00 0.00 0.00 0.00 0.00 0.00 0.00 0.00 0.00 0.00 0.00 0.00 0.00 0.00 0.00 0.00 0.00 0.00 0.00 0.00 0.00 0.00 0.00 0.00 0.00 0.00 0.00 0.00 0.00 0.00
0.00 0.00 0.00 0.00 0.00 0.00 0.00 0.00 0.00 0.00 0.00 0.29 0.00 0.00 0.00 0.00 0.00 0.00 0.00 0.00 0.00 0.00 0.00 0.00 0.00 0.00 0.00 0.00 0.00 0.00 0.00 0.00 0.00 0.00 0.00 0.00 0.00 0.00 0.00 0.00 0.00 0.00 0.00 0.00
0.00 0.00 0.00 0.00 0.00 0.00 0.00 0.00 0.81 1.02 1.36 0.22 0.00 0.00 0.00 0.00 0.00 0.00 0.00 0.00 0.00 0.00 0.00 0.00 0.00 0.00 0.00 0.00 0.00 0.00 0.00 0.00 0.00 0.00 0.00 0.00 0.00 0.00 0.00 0.00 0.00 0.00 0.00 0.00
0.34 0.81 0.00 0.00 0.00 0.01 0.00 0.00 0.26 0.15 0.18 0.02 0.00 0.02 0.00 0.00 0.00 0.00 0.00 0.00 0.00 0.00 0.00 0.00 0.00 0.00 0.00 0.00 0.00 0.00 0.00 0.00 0.00 0.00 0.00 0.00 0.00 0.00 0.00 0.00 0.00 0.00 0.00 0.00
0.19 0.05 0.00 0.00 0.00 0.00 0.01 0.16 0.00 0.06 0.34 0.21 0.08 0.00 0.00 0.00 0.00 0.00 0.00 0.00 0.00 0.00 0.00 0.00 0.00 0.00 0.00 0.00 0.00 0.00 0.00 0.00 0.00 0.00 0.00 0.00 0.00 0.00 0.00 0.00 0.00 0.00 0.00 0.00
0.00 0.13 0.00 0.00 0.00 0.00 0.00 0.00 0.50 0.50 1.07 0.45 0.02 0.00 0.00 0.00 0.00 0.00 0.00 0.00 0.00 0.00 0.00 0.00 0.00 0.00 0.00 0.00 0.00 0.00 0.00 0.00 0.00 0.00 0.00 0.00 0.00 0.00 0.00 0.00 0.00 0.00 0.00 0.00
0.00 0.01 0.07 0.00 0.00 0.00 0.00 0.00 0.00 0.14 0.48 0.33 0.22 0.01 0.00 0.00 0.00 0.00 0.00 0.00 0.00 0.00 0.00 0.00 0.00 0.00 0.00 0.00 0.00 0.00 0.00 0.00 0.00 0.00 0.00 0.00 0.00 0.00 0.00 0.00 0.00 0.00 0.00 0.00
0.00 0.00 0.34 0.07 0.00 0.00 0.00 0.00 0.00 0.24 0.09 0.18 0.30 0.17 0.00 0.00 0.00 0.00 0.00 0.00 0.00 0.00 0.00 0.00 0.00 0.00 0.00 0.00 0.00 0.00 0.00 0.00 0.00 0.00 0.00 0.00 0.00 0.00 0.00 0.00 0.00 0.00 0.00 0.00
0.00 0.45 1.27 0.85 0.44 0.01 0.00 0.00 0.00 0.00 0.03 0.05 0.52 0.05 0.00 0.00 0.00 0.00 0.00 0.00 0.00 0.00 0.00 0.00 0.00 0.00 0.00 0.00 0.00 0.00 0.00 0.00 0.00 0.00 0.00 0.00 0.00 0.00 0.00 0.00 0.00 0.00 0.00 0.00
nan 0.02 0.06 0.08 0.05 0.00 0.01 0.00 0.00 0.00 0.98 0.06 0.03 0.00 0.00 0.00 0.00 0.00 0.00 0.00 0.00 0.00 0.00 0.00 0.00 0.00 0.00 0.00 0.00 0.00 0.00 0.00 0.00 0.00 0.00 0.00 0.00 0.00 0.00 0.00 0.00 0.00 0.00 0.00
0.00 0.71 0.01 0.00 0.00 0.00 0.00 0.00 0.00 0.03 0.01 0.10 0.00 0.00 0.00 0.00 0.00 0.00 0.00 0.00 0.00 0.00 0.00 0.00 0.00 0.00 0.00 0.00 0.00 0.00 0.00 0.00 0.00 0.00 0.00 0.00 0.00 0.00 0.00 0.00 0.00 0.00 0.00 0.00
0.00 0.72 0.04 0.50 0.01 0.00 0.03 0.00 0.00 0.00 0.00 0.00 0.00 0.00 0.00 0.00 0.00 0.00 0.00 0.00 0.00 0.00 0.00 0.00 0.00 0.00 0.00 0.00 0.00 0.00 0.00 0.00 0.00 0.00 0.00 0.00 0.00 0.00 0.00 0.00 0.00 0.01 0.00 0.00
0.02 0.39 2.39 3.49 0.04 0.06 2.25 0.06 0.00 0.00 0.00 0.00 0.00 0.00 0.00 0.00 0.00 0.00 0.00 0.00 0.01 0.00 0.00 0.00 0.00 0.00 0.00 0.00 0.00 0.00 0.00 0.00 0.00 0.00 0.01 0.01 0.01 0.01 0.01 0.01 0.01 0.01 0.01 0.01
0.03 0.19 0.78 3.57 1.79 6.57 0.33 0.00 0.00 0.00 0.00 0.00 0.00 0.00 0.00 0.00 0.00 0.00 0.00 0.00 0.00 0.00 0.00 0.00 0.00 0.00 0.00 0.00 0.00 0.00 0.00 0.01 0.01 0.01 0.02 0.03 0.03 0.06 0.07 0.07 0.06 0.05 0.03 0.03
0.00 0.04 2.96 5.02 2.98 0.08 0.00 0.00 0.00 0.00 0.00 0.00 0.00 0.00 0.00 0.00 0.00 0.00 0.00 0.00 0.00 0.00 0.00 0.00 0.00 0.00 0.00 0.02 0.03 0.05 0.07 0.07 0.06 0.06 0.07 0.08 0.07 0.09 0.07 0.10 0.07 0.07 0.08 0.06
0.00 0.00 0.17 4.93 4.65 3.17 0.00 0.00 0.00 0.00 0.11 0.00 0.00 0.00 0.00 0.00 0.00 0.00 0.00 0.00 0.00 0.00 0.00 0.02 0.03 0.04 0.04 0.04 0.03 0.05 0.06 0.07 0.07 0.07 0.07 0.07 0.07 0.14 0.12 0.10 0.14 0.15 0.13 0.15
1.83 2.74 5.02 4.17 3.83 1.21 0.01 0.00 0.00 0.55 0.02 0.03 0.00 0.00 0.00 0.00 0.00 0.00 0.00 0.00 0.00 0.01 0.03 0.05 0.10 0.14 0.19 0.22 0.23 0.22 0.20 0.20 0.19 0.18 0.16 0.17 0.16 0.25 0.14 0.17 0.16 0.26 0.33 0.21
0.74 2.21 4.35 2.93 3.85 4.17 0.01 0.00 0.00 0.01 0.01 0.02 0.00 0.00 0.00 0.00 0.00 0.00 0.00 0.00 0.01 0.03 0.04 0.05 0.06 0.06 0.07 0.10 0.09 0.11 0.10 0.13 0.20 0.24 0.26 0.31 0.40 0.32 0.28 0.60 0.42 0.63 0.53 0.59
1.08 0.18 1.01 0.14 0.70 0.00 0.00 0.01 0.00 0.00 0.01 0.01 0.00 0.00 0.00 0.00 0.00 0.00 0.00 0.00 0.01 0.02 0.05 0.06 0.12 0.16 0.15 0.27 0.23 0.29 0.26 0.28 0.35 0.55 0.77 0.75 0.66 0.62 0.62 0.89 0.64 0.92 0.73 0.90
0.11 0.14 0.79 0.69 0.24 0.03 0.01 0.00 0.00 0.00 0.00 0.00 0.00 0.00 0.00 0.00 0.00 0.00 0.00 0.01 0.02 0.08 0.13 0.16 0.22 0.28 0.31 0.28 0.31 0.33 0.30 0.33 1.02 1.01 0.57 0.45 0.59 0.51 0.59 0.75 0.81 1.18 1.03 0.87
0.29 0.34 0.59 0.51 0.16 0.17 0.08 0.02 0.00 0.00 0.00 0.00 0.00 0.00 0.00 0.00 0.00 0.00 0.03 0.06 0.06 0.12 0.21 0.31 0.43 0.45 0.43 0.37 0.37 0.48 0.42 0.45 0.64 0.72 0.42 0.53 0.72 0.80 0.50 0.43 0.76 0.76 0.48 1.04
0.27 0.31 0.47 0.52 0.20 0.13 0.03 0.15 0.04 0.04 0.02 0.01 0.02 0.04 0.07 0.07 0.07 0.11 0.14 0.10 0.13 0.20 0.24 0.30 0.33 0.31 0.34 0.41 0.45 0.59 0.74 0.67 0.70 0.45 0.62 0.59 0.59 0.54 0.51 0.60 0.67 nan nan nan
SL_Ratio
nan nan nan nan nan nan nan nan nan nan nan nan nan nan nan nan nan nan nan nan nan nan nan nan nan nan nan nan nan nan nan nan nan nan nan nan nan nan nan nan nan nan nan nan
nan nan nan nan nan nan nan nan nan nan nan nan nan nan nan nan nan nan nan nan nan nan nan nan nan nan nan nan nan nan nan nan nan nan nan nan nan nan nan nan nan nan nan nan
nan nan nan nan nan nan nan nan nan nan nan nan nan nan nan nan nan nan nan nan nan nan nan nan nan nan nan nan nan nan nan nan nan nan nan nan nan nan nan nan nan nan nan nan
nan nan nan nan nan nan nan nan nan nan nan 0.0 nan nan nan nan nan nan nan nan nan nan nan nan nan nan nan nan nan nan nan nan nan nan nan nan nan nan nan nan nan nan nan nan
2.4 nan nan nan nan nan nan nan nan nan nan 3.9 nan 4.3 nan nan nan nan nan nan nan nan nan nan nan nan nan nan nan nan nan nan nan nan nan nan nan nan nan nan nan nan nan nan
nan nan nan nan nan nan nan nan nan nan 5.0 4.3 nan nan nan nan nan nan nan nan nan nan nan nan nan nan nan nan nan nan nan nan nan nan nan nan nan nan nan nan nan nan nan nan
nan nan nan nan nan nan nan 2.9 5.1 5.6 6.0 5.3 nan 2.0 nan nan nan nan nan nan nan nan nan nan nan nan nan nan nan nan nan nan nan nan nan nan nan nan nan nan nan nan nan nan
3.1 5.1 nan nan 3.3 2.6 nan 3.3 4.3 6.3 4.7 2.8 nan 3.5 nan nan nan nan nan nan nan nan nan nan nan nan nan nan nan nan nan nan nan nan nan nan nan nan nan nan nan nan nan nan
3.6 4.1 nan nan nan nan 3.0 2.5 nan 4.7 4.5 4.3 4.7 nan nan nan nan nan nan nan nan nan nan nan nan nan nan nan nan nan nan nan nan nan nan nan nan nan nan nan nan nan nan nan
nan 4.7 nan nan nan nan nan nan 4.6 4.0 6.4 6.8 5.9 nan nan nan nan nan nan nan nan nan nan nan nan nan nan nan nan nan nan nan nan nan nan nan nan nan nan nan nan nan nan nan
nan 4.6 2.9 nan nan nan nan nan 3.3 3.6 4.0 5.1 4.8 5.4 nan nan nan nan nan nan nan nan nan nan nan nan nan nan nan nan nan nan nan nan nan nan nan nan nan nan nan nan nan nan
nan 5.0 3.9 3.1 nan nan nan nan nan 4.5 5.4 4.6 4.8 5.9 nan nan nan nan nan nan nan nan nan nan nan nan nan nan nan nan nan nan nan nan nan nan nan nan nan nan nan nan nan nan
nan 3.9 5.3 5.5 6.1 2.5 nan nan nan nan 3.4 4.9 4.7 4.3 nan nan nan nan nan nan nan nan nan nan nan nan nan nan nan nan nan nan nan nan nan nan nan nan nan nan nan nan nan nan
nan 3.5 3.9 3.7 3.9 nan 3.5 nan nan nan 4.6 3.1 2.7 nan nan nan nan nan nan nan nan nan nan nan nan nan nan nan nan nan nan nan nan nan nan nan nan nan nan nan nan nan nan nan
nan 4.6 3.5 5.0 nan nan nan nan nan 4.0 2.4 4.7 nan nan nan nan nan nan nan nan nan nan nan nan nan nan nan nan nan nan nan nan nan nan nan nan nan nan nan nan nan nan nan nan
nan 4.2 4.5 5.4 4.0 4.3 4.2 nan 10.0 4.0 nan nan nan 6.7 nan nan nan nan nan nan nan nan nan nan nan nan nan nan nan nan nan nan nan nan nan nan nan 2.9 10.0 0.0 2.7 2.5 2.2 2.5
2.6 3.9 3.8 4.7 4.9 4.5 6.1 5.1 nan nan nan nan 6.7 nan nan nan nan nan nan 4.0 3.8 nan nan nan nan nan nan nan nan nan nan nan 0.0 2.5 3.6 3.6 3.9 3.7 3.2 2.7 2.6 2.8 3.9 4.7
2.5 3.2 3.0 4.7 4.2 6.9 5.4 nan nan nan nan nan nan nan nan nan nan nan nan nan nan nan nan nan nan nan nan nan nan 0.0 7.5 7.4 6.3 4.8 4.2 4.5 5.2 6.1 6.9 6.8 6.7 6.1 6.0 5.7
nan 3.3 5.1 6.0 5.8 4.9 nan nan nan 0.0 nan nan nan nan nan nan nan nan nan nan nan nan nan nan nan nan nan 10.3 9.8 9.0 8.9 7.7 6.4 6.4 8.1 8.1 7.3 6.4 6.9 5.9 6.7 7.0 6.4 5.8
nan nan 3.8 5.2 5.5 7.3 nan nan nan nan 3.9 nan nan nan nan nan 0.0 nan nan nan nan nan 8.0 8.7 10.5 10.1 10.2 11.1 10.0 8.7 9.3 9.2 9.6 9.3 9.1 8.2 7.3 6.3 7.1 7.6 6.8 6.6 5.7 6.1
4.0 4.1 4.9 5.0 5.2 4.8 2.5 2.7 nan 6.1 3.6 2.8 nan nan nan nan nan 8.0 nan nan nan 8.5 10.8 11.2 10.9 8.8 8.2 7.9 8.0 9.4 9.6 10.4 9.8 9.6 9.5 8.8 8.3 6.5 7.5 6.5 6.5 5.7 5.1 5.7
5.6 5.1 5.2 5.4 5.7 6.6 2.5 2.5 3.6 2.6 2.7 2.7 1.7 nan nan nan nan nan nan nan 10.5 11.6 11.2 10.0 9.7 10.5 11.2 10.1 9.5 9.8 10.8 10.3 9.0 8.6 8.7 8.2 6.3 6.2 6.0 4.6 5.4 4.9 5.0 5.2
5.6 4.5 4.0 4.1 3.9 2.5 nan 3.0 nan 3.0 3.0 3.9 0.0 nan nan nan nan nan nan nan 11.5 11.8 12.2 11.7 8.8 9.0 10.5 8.2 8.2 9.4 11.4 10.7 9.7 7.8 6.9 6.6 6.3 5.3 4.6 4.3 5.3 5.3 4.8 5.4
5.0 5.0 4.0 4.9 4.5 3.9 3.7 5.0 nan nan 0.0 nan nan nan nan nan nan nan 0.0 8.8 12.4 9.8 9.5 9.0 9.0 10.0 10.5 10.2 9.9 9.1 9.9 9.7 6.7 6.7 7.6 7.9 7.0 6.4 6.2 5.2 5.0 4.9 5.4 5.8
6.0 6.2 6.6 5.6 6.8 6.5 4.9 4.1 nan nan nan nan nan nan nan nan nan 6.7 4.6 5.8 8.4 10.1 11.3 10.9 11.7 12.3 12.8 12.9 12.7 11.0 10.6 9.3 8.2 8.2 10.4 8.7 7.1 6.6 8.8 8.6 6.3 6.9 6.8 5.9
10.0 11.0 6.9 5.6 8.2 8.6 6.5 7.3 8.8 11.0 10.4 5.3 5.8 9.0 8.9 8.8 9.7 10.3 10.1 9.9 10.1 10.9 11.3 11.8 12.0 12.8 13.8 13.4 13.1 11.7 9.4 8.1 8.3 9.9 9.5 8.2 8.3 8.6 8.8 9.3 8.9 nan nan nan